Patrik Vydra

Olheiro-Chefe - Slavia Prague
4 Abr 2027
Domingo
Processo

Personalidade

Adaptabilidade (6) Ambição (17) Controvérsia (1) Lealdade (14) Pressão (6) Profissionalismo (7) Espírito Esportivo (16) Temperamento (17)

Perfil

Estilo de Treinamento Democrático
Licença Continental Pro
Determinação 12
Gestão de Pessoas 9
Motivação 9
Disciplina 8
Satisfação no Trabalho
62%
Fadiga
0%
Função Olheiro-Chefe
Salário 76.3K p/s
Contrato 14.03.2029

Desempenho

Comportamento Bom
Eficácia do Treinamento
27%
Desenvolvimento do Jogador
45%
Prevenção de Lesões
35%
Implementação Tática
45%

Eventos Recentes

Recomendou um alvo de transferência agora
Recomendou um alvo de transferência agora
Participou de uma reunião de recrutamento agora
Avaliou um jogador agora
Avaliou um jogador agora
Avaliou um jogador agora
Avaliou um jogador agora
Avaliou um jogador agora

Monitorando agora

213
Jogador Clube Status Habilidade Confiança Observado Última observação Último voto
Erik Prekop Gornik Zabrze Ativo 126 / 133 40% 3 03.04.2027 -
Alexandr Sobolev Zenit Ativo 134 / 137 40% 8 03.04.2027 -
Oleksii Hutsuliak Polissia Ativo 132 / 126 40% 2 03.04.2027 -
Abdullah Juma Al Ahli Ativo 140 / 126 40% 6 02.04.2027 -
Kauã Elias Shakhtar Ativo 139 / 131 40% 8 02.04.2027 -
Sayfallah Ltaief Cracovia Ativo 129 / 127 40% 3 02.04.2027 -
Soufiane Rahimi Al Ain Ativo 144 / 126 40% 5 02.04.2027 -
Youssef Al Bloushi Al Shabab Ativo 148 / 156 40% 1 02.04.2027 -
Domagoj Drožđek Tractor Ativo 135 / 112 40% 8 01.04.2027 -
Zizo Al Ahly Ativo 125 / 140 40% 2 01.04.2027 -
Gerónimo Rivera Al Wahda Ativo 126 / 142 40% 1 01.04.2027 -
Allahyar Sayyadmanesh Lech Ativo 123 / 137 40% 10 31.03.2027 -
Everton Bala Levski Ativo 134 / 128 40% 13 31.03.2027 -
Karel Spáčil Viktoria Plzen Ativo 126 / 138 40% 7 30.03.2027 -
Fashion Sakala Al-Fayha Ativo 137 / 134 40% 5 30.03.2027 -
Mirlind Daku Spartak Moscow Ativo 129 / 137 40% 7 30.03.2027 -
Maicon Levski Ativo 125 / 133 40% 1 30.03.2027 -
Patrik Wålemark Lech Ativo 131 / 133 40% 4 28.03.2027 -
Teboho Williams SuperSport United Ativo 126 / 128 40% 2 28.03.2027 -
Peter Federico Gornik Zabrze Ativo 125 / 119 40% 3 28.03.2027 -
Chuchu Ramírez CSKA Moscow Ativo 128 / 133 40% 6 26.03.2027 -
Kwadwo Duah Ludogorets Ativo 130 / 136 40% 6 25.03.2027 -
Julián Quiñones Al-Qadisiyah Ativo 151 / 143 40% 3 24.03.2027 -
Eguinaldo Shakhtar Ativo 126 / 123 40% 9 23.03.2027 -
Vinicius Tobias Shakhtar Ativo 134 / 128 40% 4 23.03.2027 -
Simone Trimboli Mantova Ativo 126 / 129 40% 1 23.03.2027 -
Oscar Fraulo Derby County Ativo 128 / 128 40% 1 23.03.2027 -
Gonzalo Plata Dinamo Moscow Ativo 141 / 137 40% 1 23.03.2027 -
Ola Brynhildsen Bodo/Glimt Ativo 119 / 144 40% 5 22.03.2027 -
Germán Berterame Inter Miami CF Ativo 134 / 142 40% 3 22.03.2027 -
Dion Beljo Dinamo Zagreb Ativo 126 / 143 40% 10 21.03.2027 -
Luis Vázquez Birmingham Ativo 138 / 136 40% 1 21.03.2027 -
Ali Soliman Masr El Makasa Ativo 123 / 130 40% 2 20.03.2027 -
Juan Brunetta Austin FC Ativo 140 / 145 40% 1 20.03.2027 -
Max Conway Bolton Wanderers Ativo 123 / 103 40% 1 20.03.2027 -
Youssef Belammari Al Ahly Ativo 138 / 116 40% 2 18.03.2027 -
Óscar Al-Diriyah Ativo 133 / 138 40% 2 18.03.2027 -
Ibrahim Tarek Masr El Makasa Ativo 125 / 142 40% 4 17.03.2027 -
Tomáš Ladra Viktoria Plzen Ativo 118 / 122 40% 3 17.03.2027 -
Axel Openda KV Oostende Ativo 125 / 142 40% 6 16.03.2027 -
Hélio Varela Maccabi Tel Aviv Ativo 128 / 118 40% 1 16.03.2027 -
Michal Kohút Banik Ostrava Ativo 125 / 118 40% 3 15.03.2027 -
Teboho Mokoena Mamelodi Sundowns Ativo 143 / 122 40% 2 15.03.2027 -
Helinho Toluca Ativo 135 / 117 40% 5 13.03.2027 -
Mamadou Coulibaly Al Jazira Ativo 120 / 137 40% 2 11.03.2027 -
Olakunle Olusegun Rostov Ativo 127 / 117 40% 1 11.03.2027 -
Moussa Dembélé Al-Ettifaq Ativo 124 / 119 40% 4 09.03.2027 -
Yuma Suzuki Kashima Antlers Ativo 124 / 117 40% 6 07.03.2027 -
Uriel Antuna Dinamo Moscow Ativo 129 / 130 40% 4 07.03.2027 -
Yorbe Vertessen Red Bull Salzburg Ativo 122 / 125 40% 3 04.03.2027 -
Theo Bongonda Al-Faisaly Ativo 132 / 131 40% 4 01.03.2027 -
Pablo Ramón Racing Club Ativo 131 / 139 40% 2 01.03.2027 -
Gianluca Busio Venezia Ativo 126 / 137 40% 1 01.03.2027 -
Jadsom Al Wahda Ativo 137 / 116 40% 1 01.03.2027 -
Johannes Eggestein Austria Wien Ativo 119 / 115 40% 1 26.02.2027 -
Maurits Kjærgaard Red Bull Salzburg Ativo 135 / 150 40% 4 25.02.2027 -
Iqraam Rayners Mamelodi Sundowns Ativo 130 / 144 40% 3 25.02.2027 -
Filippo Ranocchia Palermo Ativo 135 / 118 40% 2 25.02.2027 -
Xeber Alkain Karpaty Ativo 125 / 129 40% 2 25.02.2027 -
Lorenzo Pirola Olympiacos Ativo 129 / 128 40% 1 25.02.2027 -
Pep Biel Charlotte Football Club Ativo 141 / 125 40% 2 23.02.2027 -
Ronaldo Rostov Ativo 129 / 132 40% 3 20.02.2027 -
Dor Turgeman New England Revolution Ativo 128 / 125 40% 11 18.02.2027 -
Patrick Cutrone Monza Ativo 119 / 138 40% 2 18.02.2027 -
Xavier Simons Bolton Wanderers Ativo 108 / 105 40% 1 14.02.2027 -
Cédric Don Maccabi Haifa Ativo 118 / 107 40% 1 14.02.2027 -
Marlon Gomes Shakhtar Ativo 136 / 127 40% 3 12.02.2027 -
Emmanuel Boateng Hapoel Tel Aviv Ativo 133 / 106 40% 1 11.02.2027 -
Karim Konaté Red Bull Salzburg Rejeitado 140 / 147 40% 11 10.02.2027 Rejeitar
Timo Werner San Jose Earthquakes Ativo 128 / 131 40% 1 10.02.2027 -
Amir Hossein Hosseinzadeh Tractor Ativo 117 / 120 40% 3 07.02.2027 -
Afimico Pululu Al-Hazem Ativo 119 / 139 40% 11 06.02.2027 -
Leandro Andrade Polissia Ativo 135 / 120 40% 5 06.02.2027 -
Julian Weigl Al-Qadisiyah Ativo 140 / 130 40% 1 05.02.2027 -
Zelimkhan Bakaev Lokomotiv Moscow Ativo 118 / 130 40% 1 04.02.2027 -
Mykola Shaparenko Dynamo Kyiv Ativo 128 / 126 40% 1 04.02.2027 -
Mehdi Ghayedi Al Nasr Ativo 118 / 113 40% 6 01.02.2027 -
Daniel Karlsbakk Sarpsborg 08 Ativo 119 / 128 40% 5 01.02.2027 -
Bruno Fuchs Palmeiras Ativo 133 / 140 40% 2 29.01.2027 -
Pedro Malheiro Al Wasl Ativo 148 / 135 40% 1 29.01.2027 -
Oswin Appollis Orlando Pirates Ativo 115 / 135 40% 1 29.01.2027 -
Alexandr Sojka Viktoria Plzen Rejeitado 118 / 119 40% 4 26.01.2027 Rejeitar
Serginho Al Wasl Ativo 138 / 134 40% 2 26.01.2027 -
Timi Max Elšnik Crvena Zvezda Ativo 134 / 133 40% 1 25.01.2027 -
Arturo Cipriani Astra Ativo 140 / 136 40% 3 23.01.2027 -
Bernard Tekpetey Ludogorets Ativo 126 / 114 40% 1 23.01.2027 -
Frans Krätzig Red Bull Salzburg Ativo 121 / 114 40% 1 23.01.2027 -
Tomás Händel Crvena Zvezda Ativo 124 / 126 40% 1 23.01.2027 -
Pedro Bicalho Qarabag Ativo 125 / 126 40% 1 21.01.2027 -
Mattia Viti Sampdoria Ativo 143 / 123 40% 1 21.01.2027 -
Nemanja Radonjić Crvena Zvezda Ativo 129 / 128 40% 1 18.01.2027 -
David Pech Mlada Boleslav Ativo 124 / 114 40% 2 11.01.2027 -
Milson Al Jazira Ativo 131 / 109 40% 1 11.01.2027 -
Juan Bezerra Zamalek Ativo 108 / 140 40% 3 09.01.2027 -
Nazar Voloshyn Dynamo Kyiv Ativo 123 / 121 40% 2 08.01.2027 -
Filip Kubala Banik Ostrava Ativo 130 / 130 40% 4 06.01.2027 -
David Buchta Radnicki 1923 Ativo 127 / 118 40% 1 06.01.2027 -
Sergey Pinyaev Lokomotiv Moscow Ativo 131 / 139 40% 2 05.01.2027 -
Saidou Alioum Jablonec Ativo 118 / 118 69% 1 03.01.2027 Aprovar
Teboho Tau Ajax Cape Town Ativo 127 / 97 40% 1 03.01.2027 -
Alessandro Bianco Modena Ativo 118 / 117 40% 1 02.01.2027 -
Facundo Torres Shakhtar Rejeitado 134 / 134 67% 1 01.01.2027 Rejeitar
Sampson Dweh Viktoria Plzen Ativo 133 / 134 66% 1 01.01.2027 Aprovar
Ondřej Kričfaluši Banik Ostrava Perdido 116 / 108 69% 1 01.01.2027 Aprovar
Dan Biton Hapoel Beer Sheva Ativo 117 / 132 40% 1 31.12.2026 -
Daryl Dike West Bromwich Albion Ativo 121 / 106 40% 1 30.12.2026 -
Juan Manuel Boselli Krasnodar Ativo 128 / 126 40% 8 29.12.2026 -
Assad Al Hamlawi Universitatea Craiova Ativo 117 / 117 40% 5 29.12.2026 -
Alexis Cuello San Lorenzo Ativo 129 / 118 40% 7 29.12.2026 -
Talles Magno New York City Ativo 136 / 123 40% 2 28.12.2026 Mais informações
Ashkan Hajsafi Gostaresh Foulad Ativo 116 / 121 40% 2 27.12.2026 -
Morlaye Sylla Damac Ativo 129 / 124 40% 1 26.12.2026 -
Max Fenger IFK Goteborg Ativo 135 / 125 40% 1 25.12.2026 -
Lucas Souto Defensa y Justicia Ativo 129 / 135 40% 3 23.12.2026 -
Aubrey Modiba Mamelodi Sundowns Ativo 135 / 105 40% 1 23.12.2026 -
Denis Vavro Viktoria Plzen Ativo 124 / 124 40% 1 23.12.2026 -
Ştefan Baiaram Universitatea Craiova Ativo 117 / 131 40% 3 21.12.2026 -
Matteo Pessina Monza Ativo 120 / 137 40% 1 21.12.2026 -
Joaquín Gho Argentinos Juniors Ativo 130 / 129 40% 1 20.12.2026 -
Relebohile Mofokeng Orlando Pirates Ativo 118 / 110 40% 1 20.12.2026 -
Lindon Emërllahu Polissia Ativo 115 / 129 40% 1 20.12.2026 -
Ashkan Shojaei Siah Jamegan Ativo 133 / 133 40% 14 18.12.2026 -
Luis Palma Lech Ativo 129 / 112 40% 6 17.12.2026 -
Michele Šego Hajduk Split Ativo 122 / 131 40% 8 17.12.2026 -
Josh Sargent Toronto FC Ativo 130 / 114 40% 8 16.12.2026 -
Giorgi Kvernadze Frosinone Ativo 118 / 130 40% 1 16.12.2026 -
Tamerlan Musaev CSKA Moscow Ativo 121 / 113 40% 2 15.12.2026 -
Nicolás Arévalo Metalist Ativo 116 / 127 40% 2 14.12.2026 -
Lewis Bate Stockport County Ativo 124 / 121 40% 1 14.12.2026 -
Brayan Gil Baltika Ativo 122 / 128 40% 4 12.12.2026 -
Pablo Rodríguez Lech Ativo 128 / 119 40% 1 12.12.2026 -
Angelo Gattermayer Wolfsberger AC Ativo 124 / 107 40% 1 10.12.2026 -
Erik Botheim Malmo FF Ativo 120 / 111 40% 4 06.12.2026 -
Adnan Courtois KV Oostende Ativo 128 / 143 40% 6 05.12.2026 -
Petter Nosa Dahl Rapid Wien Ativo 117 / 132 40% 5 03.12.2026 -
Manfred Ugalde Spartak Moscow Ativo 129 / 130 40% 11 01.12.2026 -
Ignacio Russo Tigre Ativo 122 / 128 40% 1 30.11.2026 -
Kévin Denkey FC Cincinnati Ativo 135 / 137 40% 9 29.11.2026 -
Nahuel Ulariaga Al Ahli Ativo 132 / 135 40% 2 28.11.2026 -
Lucas Carrizo Newell's Old Boys Ativo 130 / 120 40% 1 26.11.2026 -
Patrick Berg Bodo/Glimt Ativo 144 / 135 40% 1 26.11.2026 -
Kein Sato FC Tokyo Ativo 140 / 131 40% 6 18.11.2026 -
Maurice Malone Minnesota United FC Ativo 112 / 121 40% 4 18.11.2026 -
Fiete Arp OB Ativo 127 / 116 40% 4 16.11.2026 -
Robert FC Copenhagen Ativo 117 / 145 40% 1 15.11.2026 -
Rodrigo Huescas FC Copenhagen Ativo 125 / 121 40% 2 14.11.2026 -
Suleiman Camara Slovan Bratislava Ativo 125 / 113 40% 2 14.11.2026 -
Thapelo Maseko FC Copenhagen Ativo 120 / 118 40% 2 14.11.2026 -
Dijon Kameri Cracovia Ativo 112 / 131 40% 2 13.11.2026 -
Ahmed Qasem Nashville SC Ativo 110 / 123 40% 1 13.11.2026 -
Amin Boudri Los Angeles Football Club Ativo 131 / 140 40% 1 11.11.2026 -
Pedro Bravo FC Midtjylland Ativo 114 / 123 40% 1 10.11.2026 -
Pedro Zenit Ativo 125 / 131 40% 3 09.11.2026 -
Khalid Yaqoob Al Shabab Ativo 112 / 136 40% 2 08.11.2026 -
Victor Lind Hammarby Ativo 124 / 123 40% 3 05.11.2026 -
Robert Petkovic Zadar Ativo 129 / 124 40% 1 02.11.2026 -
Marko Brest Olimpija Ljubljana Ativo 117 / 106 40% 1 01.11.2026 -
Theo Corbeanu Toronto FC Ativo 126 / 112 40% 4 26.10.2026 -
Tobias Bech AGF Ativo 134 / 130 40% 4 25.10.2026 -
Gift Zwane Platinum Stars Ativo 110 / 124 40% 1 25.10.2026 -
Hossein Yazdani Siah Jamegan Ativo 122 / 134 40% 1 25.10.2026 -
Itumeleng Tau Ajax Cape Town Ativo 114 / 130 40% 1 22.10.2026 -
Alejo Dramisino Honved Ativo 123 / 114 40% 1 22.10.2026 -
Dmitry Barinov CSKA Moscow Ativo 135 / 118 40% 1 19.10.2026 -
Aaron Herrera San Diego Football Club Ativo 132 / 112 40% 1 19.10.2026 -
Ramadan Mohsen Zamalek Ativo 115 / 108 40% 2 17.10.2026 -
Oleksandr Tymchyk Dynamo Kyiv Ativo 130 / 122 40% 1 09.10.2026 -
Josh Brownhill Al-Shabab Ativo 118 / 142 40% 1 09.10.2026 -
Luke Thomas Leicester City Ativo 131 / 143 40% 1 09.10.2026 -
Taisei Miyashiro Seattle Sounders Ativo 135 / 121 40% 1 05.10.2026 -
Kirill Glebov CSKA Moscow Ativo 132 / 130 40% 1 30.09.2026 -
Tayvon Gray New York City Ativo 121 / 101 40% 1 30.09.2026 -
Ammar Ramadan DAC Dunajska Streda Ativo 128 / 126 40% 3 28.09.2026 -
Ondřej Lingr Korona Ativo 132 / 116 40% 2 27.09.2026 -
Jahkeele Marshall-Rutty New York Red Bulls Ativo 111 / 121 40% 1 27.09.2026 -
Ho-yeon Jung Minnesota United FC Ativo 136 / 119 40% 1 27.09.2026 -
Patrick Yazbek Nashville SC Ativo 118 / 111 40% 2 26.09.2026 -
Armstrong Oko-Flex Levski Ativo 122 / 130 40% 1 26.09.2026 -
Mateo Silvetti Inter Miami CF Ativo 124 / 111 40% 1 24.09.2026 -
Felipe Augusto Zenit Ativo 125 / 135 40% 4 19.09.2026 -
Samuel Gidi FC Cincinnati Ativo 109 / 119 40% 1 19.09.2026 -
Griffin Dorsey Orlando City Ativo 110 / 114 40% 1 18.09.2026 -
Elías Báez Atlanta United FC Ativo 123 / 129 40% 1 18.09.2026 -
Ramiro Ruiz Rodríguez Atlético Tucumán Ativo 118 / 115 40% 1 18.09.2026 -
Ibrahim Adel FC Nordsjaelland Ativo 124 / 138 40% 3 15.09.2026 -
Quinn Sullivan Philadelphia Union Ativo 112 / 127 40% 1 13.09.2026 -
Jack Currie Oxford United Ativo 108 / 138 40% 2 11.09.2026 -
Merchas Doski Viktoria Plzen Ativo 115 / 118 40% 1 08.09.2026 -
Andrés Cubas Vancouver Whitecaps Ativo 123 / 109 40% 1 08.09.2026 -
David Ayala Inter Miami CF Ativo 118 / 119 40% 2 06.09.2026 -
Haissem Hassan Bloemfontein Celtic Ativo 127 / 135 40% 1 06.09.2026 -
Andrews Tetteh Panathinaikos Ativo 131 / 121 40% 1 06.09.2026 -
Lucas Sanabria LA Galaxy Ativo 119 / 142 40% 1 03.09.2026 -
Filip Vaško Slovacko Ativo 107 / 108 69% 1 31.08.2026 Aprovar
Clayton Olympiacos Ativo 132 / 119 40% 2 26.08.2026 -
Václav Jemelka Viktoria Plzen Ativo 126 / 125 69% 1 24.08.2026 Aprovar
Cheikh Sabaly Vancouver Whitecaps Ativo 121 / 125 40% 2 23.08.2026 -
Percy Erasmus SuperSport United Ativo 116 / 107 40% 2 20.08.2026 -
Kelvin Yeboah Minnesota United FC Ativo 115 / 122 40% 2 18.08.2026 -
Liel Abada Charlotte Football Club Ativo 142 / 138 40% 1 18.08.2026 -
Alexis Steimbach Gimnasia La Plata Ativo 122 / 109 40% 1 17.08.2026 -
Bénie Traoré New York City Ativo 124 / 114 40% 1 14.08.2026 -
Bongokuhle Hlongwane Minnesota United FC Ativo 135 / 130 40% 1 14.08.2026 -
Federico Girotti Alianza Lima Ativo 131 / 128 40% 1 13.08.2026 -
Wessam Abou Ali Columbus Crew Ativo 133 / 120 40% 1 13.08.2026 -
Duncan McGuire Houston Dynamo Ativo 117 / 140 40% 1 09.08.2026 -
Ola Solbakken FC Nordsjaelland Ativo 123 / 109 40% 1 06.08.2026 -
Leonardo Campana New England Revolution Ativo 128 / 128 40% 1 06.08.2026 -
Rafael Navarro Colorado Rapids Ativo 115 / 133 40% 1 06.08.2026 -
Louis Munteanu DC United Ativo 116 / 127 40% 1 05.08.2026 -
Alexander Aravena Portland Timbers Ativo 127 / 126 40% 1 04.08.2026 -
Keaton Parks New York City Ativo 121 / 144 40% 1 01.08.2026 -
Iván Alejo Valladolid Ativo 132 / 120 40% 1 01.08.2026 -